OBJECT AV, 61778

Orbit data source: Space-Track

You're viewing an uncataloged RSO

Recently launched and/or uncataloged RSOs may have evolving metadata. Metadata may include the following, but is not limited to: Owner, Manufacturer, Bus, Motor, and Mission.

OBJECT AV, 61778 is a satellite in SSO that was launched on Mon, 04 Nov 2024 UTC via a SOYUZ-2-1B launch vehicle from the Vostochny Cosmodrome (VOSTO). Unknown objects in Earth's orbit typically refer to objects detected orbiting the Earth but have not yet been identified or cataloged. These objects could be anything from previously untracked satellites, spent rocket stages, debris from satellite collisions, or even natural meteoroids temporarily captured by Earth's gravity.

Loading next visibility...
Identifier
61778, 2024-199AV
Orbit
SSO
Country
Flag of TBDTBD
Related business
Manufacturer
Sputniks
Mission
Operational Commercial Communications
Bus & Motor
CUBESAT 3U?, Unknown motor
Mass
3 kg wet, 3 kg dry
Launch date (UTC)
2024-11-04 (2 years ago)
Launch vehicle
SOYUZ-2-1B
Launch site
Vostochny Cosmodrome (VOSTO)
Object type
Unknown
Shape & HBR
Box, 0.2 m
Radar Cross Section
0.035 m², Medium (>0.1 m² and < 1m²)

Expand to show TLE details & history
Last TLE update: 9 hours ago

TLE from 9 hours ago
0 OBJECT AV
1 61778U 24199AV  26264.27273774  .00061736  00000-0  55688-3 0  9991
2 61778  97.2695 142.8158 0002236 291.1191  68.9831 15.67973731149429
Epoch: 2026-09-21T06:32Z
TLE epoch observation values (Epoch: 2026-09-21T06:32:44.540Z)
Latitude
-0.00006°
Longitude
44.47528°
Altitude
367.318 km
Speed
7.689 km/s
True Right ascension
09h 31m 15s
True Declination
0° 00' 00"
Sunlit
Object was in daylight at epoch
Visualization orbit readout
Latitude
Unknown
Longitude
Unknown
Altitude
Unknown
Speed
Unknown
Apparent Right ascension
Unknown
Apparent Declination
Unknown
Sunlit
N/A
Visualization observer readout
Local Sidereal Time
08:08:03
Azimuth
Unknown
Elevation
Unknown
Doppler factor
Unknown
Orbital elements
Apogee altitude
363.103 km
Perigee altitude
360.089 km
Semi-major axis
6,739.733 km
Eccentricity
0.00022
Inclination
97.2695°
RAAN
142.8158°
Arg. of periapsis
291.1191°
True anomaly
69.00702°
Mean anomaly
68.9831°
Eccentric anomaly
68.99506°
Mean motion
3.92265 °/min
Orbital period
91.77 mins
BSTAR
0.00055688
Loading maneuver chart data...
Computing Atmospheric mass density...
Loading historical data...
Loading historical data...
Loading historical data...
Loading historical data...
Loading historical data...
Loading historical data...
Loading historical data...

Documentation

Showing up to 5 results
|